格洛纳斯M-744 COSMOS 2476 [GLONASS-M]

导读

COSMOS 2476(GLONASS)是独联体(CIS)于2011年11月4日发射的格洛纳斯卫星导航系统卫星。格洛纳斯是俄罗斯自主研发的全球卫星导航系统,星座由24颗卫星组成,轨道高度约1.91万公里,提供全球定位服务,采用军民合用开放政策,为全球用户提供高精度定位导航服务,该卫星是格洛纳斯系统组网的重要组成部分,保障系统稳定运行。

Basic Information
目录编号:
37867
目录名称:
COSMOS 2476 (GLONASS)
国际标识:
2011-064A
轨道中心:
EARTH
卫星名称:
格洛纳斯M-744
卫星全名:
格洛纳斯M-744 COSMOS 2476 [GLONASS-M]
卫星状态:
在轨 (已飞行5338 天)
发射日期:
2011-11-04 UTC
国别 :
俄罗斯(独联体) (CIS)
星等 :
--
Orbit Information
数据来源 国际轨道数据 AOE轨道数据
星历时间 2026-06-16T13:20:30+0800
9小时前
查看轨道信息
2026-06-15T03:00:00+0800
1天前
查看轨道信息
半长轴 25507.881km 25507.921km
偏心率 0.0022679 0.0022799
轨道倾角 65.269° 65.269°
近地点辐角 238.751° 239.056°
升交点赤经 72.904° 72.952°
平近点角 265.855° 247.806°
近地点 19071.894km 19071.628km
远地点 19187.594km 19187.94km
周期 675.727分钟 675.729分钟
每日圈数 2.131038 2.131033
Detailed Information
平衡模式:
三轴稳定
覆盖范围:
全球
运营商:
列舍特涅夫卫星信息系统
运营商所在国:
俄罗斯
制造商(研发单位):
列舍特涅夫卫星信息系统
制造商所在国:
俄罗斯
使用方式:
暂无
Satellite Introduction
格洛纳斯(GLONASS )是苏联/俄罗斯研制卫星导航系统。标准配置为24颗卫星,其中18颗卫星就能保证该系统为俄罗斯境内用户提供全部服务。该卫星仍在工作。
2D Orbit Map
3D Orbit Map
Orbit Altitude Analysis Chart
Orbit Inclination Analysis Chart
Orbit Comprehensive Analysis Chart
View Comprehensive Chart